Weather History for Altus AFB, OK

Change the Weather History Date:

Wednesday, October 26, 2011

  Actual Average Record
Temperature  
Mean Temperature 62 °F -  
Max Temperature 72 °F 68 °F 91 °F (2014)
Min Temperature 54 °F 47 °F 33 °F (1997)
Degree Days  
Heating Degree Days 2    
Growing Degree Days 12 (Base 50)    
Moisture  
Dew Point 44 °F    
Average Humidity 54    
Maximum Humidity 76    
Minimum Humidity 42    
Precipitation  
Precipitation 0.00 in - - ()
Sea Level Pressure  
Sea Level Pressure 29.91 in    
Wind  
Wind Speed 14 mph (NNE)    
Max Wind Speed 26 mph    
Max Gust Speed 36 mph    
Visibility 10 miles    
Events      
Averages and records for this station are not official NWS values.
T = Trace of Precipitation, MM = Missing Value Source: NWS Daily Summary

Daily Weather History Graph

Daily Weather History Graph

Search for Another Location

Airport:

Trip Planner

Search our weather history database for the weather conditions in past years. The results will help you decide how hot, cold, wet, or windy it might be!

Date:

Astronomy

Oct. 26, 2011 Rise Set
Actual Time 7:51 AM CDT 6:49 PM CDT
Civil Twilight 7:26 AM CDT 7:15 PM CDT
Nautical Twilight 6:56 AM CDT 7:44 PM CDT
Astronomical Twilight 6:27 AM CDT 8:14 PM CDT
Moon 7:39 AM CDT (10/26) 6:36 PM CDT (10/26)
Length of Visible Light 11h 49m
Length of Day
10h 57m
Waning Crescent, 0% of the Moon is Illuminated
Oct 26
Waning Crescent
Oct 26
New
Nov 2
First Quarter
Nov 10
Full
Nov 18
Last Quarter

Hourly Weather History & Observations

Time (CDT) Temp. Dew Point Humidity Pressure Visibility Wind Dir Wind Speed Gust Speed Precip Events Conditions
12:55 AM 69.4 °F 56.1 °F 62% 29.76 in 10.0 mi SSE 9.2 mph - N/A   Mostly Cloudy
1:55 AM 70.9 °F 55.2 °F 58% 29.75 in 10.0 mi South 8.1 mph - N/A   Mostly Cloudy
2:55 AM 69.6 °F 54.3 °F 58% 29.76 in 10.0 mi SSW 4.6 mph - N/A   Mostly Cloudy
3:55 AM 63.3 °F 53.6 °F 71% 29.76 in 10.0 mi SE 8.1 mph - N/A   Clear
4:55 AM 61.0 °F 53.2 °F 76% 29.77 in 10.0 mi SSE 3.5 mph - N/A   Clear
5:55 AM 59.2 °F 51.1 °F 74% 29.81 in 10.0 mi North 10.4 mph - N/A   Clear
6:55 AM 57.7 °F 43.7 °F 60% 29.84 in 10.0 mi North 20.7 mph - N/A   Clear
7:55 AM 56.1 °F 43.0 °F 61% 29.90 in 10.0 mi North 18.4 mph - N/A   Partly Cloudy
8:55 AM 55.4 °F 42.8 °F 63% 29.93 in 10.0 mi North 18.4 mph 33.4 mph N/A   Clear
9:55 AM 57.2 °F 41.9 °F 57% 29.95 in 10.0 mi North 25.3 mph 35.7 mph N/A   Clear
10:55 AM 59.4 °F 41.9 °F 52% 29.98 in 10.0 mi North 21.9 mph 27.6 mph N/A   Clear
11:55 AM 61.9 °F 43.0 °F 50% 29.98 in 10.0 mi North 19.6 mph 26.5 mph N/A   Clear
12:55 PM 63.9 °F 43.9 °F 48% 29.96 in 10.0 mi North 15.0 mph - N/A   Clear
1:55 PM 65.7 °F 43.5 °F 45% 29.93 in 10.0 mi North 16.1 mph - N/A   Partly Cloudy
2:55 PM 66.6 °F 43.0 °F 42% 29.91 in 10.0 mi NNE 15.0 mph - N/A   Clear
3:55 PM 65.8 °F 42.1 °F 42% 29.92 in 10.0 mi NNE 20.7 mph - N/A   Clear
4:55 PM 65.7 °F 41.9 °F 42% 29.91 in 10.0 mi NNE 18.4 mph - N/A   Clear
5:55 PM 63.9 °F 41.4 °F 44% 29.93 in 10.0 mi NNE 17.3 mph - N/A   Clear
6:55 PM 61.0 °F 41.2 °F 48% 29.95 in 10.0 mi NNE 12.7 mph - N/A   Clear
7:55 PM 58.5 °F 41.2 °F 53% 29.97 in 10.0 mi NNE 8.1 mph - N/A   Scattered Clouds
8:55 PM 57.9 °F 41.2 °F 54% 29.99 in 10.0 mi North 9.2 mph - N/A   Mostly Cloudy
9:32 PM 59.0 °F 39.2 °F 48% 30.00 in 10.0 mi NNE 17.3 mph - N/A   Mostly Cloudy
9:55 PM 58.8 °F 38.8 °F 47% 29.99 in 10.0 mi NNE 17.3 mph - N/A   Overcast
10:01 PM 59.0 °F 39.2 °F 48% 29.99 in 6.0 mi NNE 18.4 mph - N/A   Haze
10:04 PM 59.0 °F 39.2 °F 48% 29.99 in 6.0 mi NNE 17.3 mph - N/A   Haze
10:55 PM 57.4 °F 37.8 °F 48% 29.98 in 9.0 mi NNE 25.3 mph 32.2 mph N/A   Overcast
11:16 PM 57.2 °F 37.4 °F 48% 29.96 in 8.0 mi NNE 25.3 mph 33.4 mph N/A   Mostly Cloudy
11:55 PM 54.0 °F 37.4 °F 54% 29.98 in 10.0 mi North 26.5 mph 32.2 mph N/A   Mostly Cloudy